Regional Weather Roundup
Issued by NWS

Home | Current Version | Previous Version | Text Only | Print | Product List | Glossary On
Versions: 1 2 3 4 5 6 7 8 9 10 11 12 13 14 15 16 17 18 19 20 21 22 23 24 25 26 27
000
ASUS45 KBOU 232307
RWRCO

WEATHER ROUNDUP FOR COLORADO
NATIONAL WEATHER SERVICE DENVER/BOULDER CO
500 PM MDT WED AUG 23 2017

NOTE: "FAIR" INDICATES FEW OR NO CLOUDS BELOW 12000 FEET WITH NO
SIGNIFICANT WEATHER AND/OR OBSTRUCTIONS TO VISIBILITY.

COZ001>005-013-030-031-240000-
...NORTHWEST COLORADO...

CITY           SKY/WX    TMP DP  RH WIND       PRES   REMARKS
CRAIG          FAIR      77  44  30 NE12      30.20F
HAYDEN         FAIR      74  48  39 E12       30.25F
MEEKER         FAIR      82  41  23 S6        30.20F
RABBIT EARS PA LGT RAIN  50  41  71 W8        30.54F
STEAMBOAT SPGS PTSUNNY   71  44  38 CALM      30.28F
WALDEN         CLOUDY    59  48  67 N9        30.38F
$$

COZ006>008-011-240000-
...WEST CENTRAL VALLEYS...

CITY           SKY/WX    TMP DP  RH WIND       PRES   REMARKS
GRAND JUNCTION FAIR      91  31  11 W15       30.06F
MONTROSE       FAIR      85  40  20 N6        30.15F
EAGLE          FAIR      79  43  27 N13G21    30.24S
RIFLE          FAIR      87  42  20 N6        30.13F
DELTA          FAIR      91  33  12 SW9G17    30.08F
NUCLA          FAIR      84  32  15 CALM      30.19F
$$

COZ017>023-064>068-240000-
...SOUTHWEST COLORADO...

CITY           SKY/WX    TMP DP  RH WIND       PRES   REMARKS
DURANGO        FAIR      82  35  18 W13       30.20F
CORTEZ         FAIR      87  34  15 NW14G22   30.15F
PAGOSA SPRINGS FAIR      78  31  17 S9        30.28F THUNDER
TELLURIDE      FAIR      73  32  22 NW3       30.42F
WOLF CREEK PAS FAIR      55  39  54 SW9G20    30.66F
$$

COZ009-010-012-014-032>034-037-058>063-240000-
...CENTRAL COLORADO...

CITY           SKY/WX    TMP DP  RH WIND       PRES   REMARKS
ASPEN          FAIR      74  39  28 VRB3      30.30F
BUENA VISTA    CLOUDY    69  39  33 N10G17    30.34F
COPPER MTN     FAIR      54  39  58 NW3       30.64F
BERTHOUD PASS  TSTM      34  30  86 W20       30.69R VSB<1/4 WCI  22
COTTONWOOD PAS PTSUNNY   64  36  34 CALM      30.49S
GUNNISON       FAIR      78  37  22 W10       30.28F
KREMMLING      FAIR      77  37  24 W20G26    30.32R
LEADVILLE      PTSUNNY   59  42  53 S8        30.47F
MONARCH PASS   FAIR      61  30  31 W21G28    30.72F
SALIDA         FAIR      73  43  34 NW14      30.35F
SUNLIGHT       PTSUNNY   55  37  50 W3        30.57S THUNDER
WILKERSON PASS CLOUDY    54  36  50 CALM      30.62F
$$

COZ069>075-240000-
...SAN LUIS VALLEY/SANGRE DE CRISTO MOUNTAINS...

CITY           SKY/WX    TMP DP  RH WIND       PRES   REMARKS
ALAMOSA        FAIR      78  39  24 W8        30.26F
DEL NORTE      FAIR      75  44  32 SE8       30.30S
LA VETA PASS   NOT AVBL
SAGUACHE         N/A    N/A N/A N/A MISG        N/A
$$

COZ035-036-038>040-240000-
...NORTHERN COLORADO FRONT RANGE...

CITY           SKY/WX    TMP DP  RH WIND       PRES   REMARKS
DENVER INTL AP PTSUNNY   84  43  23 NW26G33   30.10F
DMNS CITY PARK   N/A     81  40  23 NW2G14    30.12R
AURORA         PTSUNNY   84  38  19 N5        30.13S
FRONT RANGE AP FAIR      86  36  16 NW9       30.12S
ERIE MUNI ARPT FAIR      81  41  24 NW7       30.15F
BOULDER MUN AP FAIR      81  41  24 W8        30.11F
CENTENNIAL     CLOUDY    82  40  22 NW12      30.15S
BROOMFIELD     NOT AVBL
FORT COLLINS   FAIR      86  45  23 W9        30.10F
LONGMONT       FAIR      80  46  29 W12       30.12F
$$

COZ041-046-047-076>085-087-088-240000-
...PIKES PEAK/PALMER DIVIDE AND SOUTHERN FOOTHILLS...

CITY           SKY/WX    TMP DP  RH WIND       PRES   REMARKS
COLO. SPRINGS  PTSUNNY   78  47  33 W3        30.22R
A. F. ACADEMY  LGT RAIN  71  44  37 W17G24    30.27R
SCHRIEVER AFB  PTSUNNY   75  46  35 S5        30.21R
CHEYENNE MTN   LGT RAIN  71  52  50 NW15G24   30.22R
ELLICOTT       FAIR     N/A N/A N/A SE7       30.18S
FALCON         CLOUDY    72  47  42 W6        30.27R
FORT CARSON    PTSUNNY   76  52  42 E3        30.17R
LIMON          FAIR      80  52  37 S14       30.12F
MONUMENT HILL  TSTM      61  52  72 SW22G30   30.31R
CANON CITY     SUNNY     86  50  28 E7        30.11S THUNDER
WALSENBURG     FAIR      88  46  23 E10G16    30.14F
TRINIDAD       FAIR      83  50  31 S9        30.12F
$$

COZ042>045-048>051-090-091-240000-
...NORTHEAST COLORADO...

CITY           SKY/WX    TMP DP  RH WIND       PRES   REMARKS
GREELEY ARPT   FAIR      86  49  27 NE6       30.07F
AKRON          FAIR      87  45  23 S16       30.04S
BURLINGTON     FAIR      86  57  37 S17G25    30.06F
WRAY           FAIR      90  55  31 S14       30.01F
YUMA           FAIR      86  59  39 S12       30.02F
STERLING       FAIR      90  54  29 N5        29.98F
HOLYOKE        FAIR      86  63  45 S13       30.01F
FORT MORGAN    FAIR      93  33  12 NW6       30.04F
$$

COZ086-089-092>099-240000-
...SOUTHEAST COLORADO...

CITY           SKY/WX    TMP DP  RH WIND       PRES   REMARKS
PUEBLO         FAIR      89  49  25 SE9       30.05S
LA JUNTA       FAIR      88  57  34 SE15G24   30.03F
LAMAR          FAIR      85  58  39 S17G26    30.02F
SPRINGFIELD      N/A     78  62  57 S17       30.10F
$$




USA.gov is the U.S. government's official web portal to all federal, state and local government web resources and services.